Theta_e
290 290 290 290 289 289 289 289 289 289 288 287 287 286 285 285 285 285 285 285 284 285 286 286 286 287 287 288 288 288 285 285 282 285 288 290 290 291 294 298 299 299 299
290 290 290 289 289 288 288 288 289 287 288 287 285 284 284 284 284 283 283 283 283 283 284 285 285 286 286 287 287 287 286 285 283 282 285 286 287 290 291 293 296 298 298
289 289 289 289 288 288 288 288 288 287 286 285 284 283 283 283 282 283 282 282 282 283 283 283 284 284 283 285 285 285 286 285 285 283 283 286 287 288 289 291 293 296 297
289 289 288 288 288 288 288 287 287 286 284 283 283 282 282 282 282 282 281 281 282 282 283 283 282 282 282 283 283 283 283 283 283 283 283 283 285 287 288 287 288 293 293
288 287 287 288 288 287 287 286 285 284 282 282 281 281 281 281 280 280 281 280 280 280 281 282 283 284 283 283 282 282 283 282 282 282 282 282 283 283 284 286 287 288 291
287 286 287 287 286 286 285 283 282 281 280 280 280 279 279 279 281 281 280 279 280 279 279 280 282 282 283 284 284 284 283 281 281 281 281 281 282 283 285 285 286 285 284
286 286 286 286 284 283 282 280 280 279 279 278 278 278 277 278 279 280 280 279 278 278 278 279 280 281 281 282 283 283 283 284 284 282 280 281 282 284 285 284 284 285 286
285 285 284 283 282 280 279 278 277 277 277 277 276 276 276 276 278 278 278 278 277 278 279 279 279 280 282 281 281 281 281 282 282 283 282 283 284 285 286 285 285 286 287
282 282 281 279 277 276 275 275 275 275 275 275 276 275 274 274 276 277 277 276 277 277 278 280 279 279 281 282 280 279 279 280 283 284 285 285 286 288 288 286 284 283 282
280 279 277 275 274 273 273 273 274 274 274 274 274 273 273 272 275 276 277 276 275 276 277 278 279 279 280 281 279 278 276 278 280 280 281 283 284 284 287 286 285 282 282
275 274 273 272 272 272 272 273 272 272 272 271 271 272 272 273 273 276 277 276 275 275 275 275 277 279 279 280 281 279 279 280 281 280 281 282 283 284 285 286 286 285 284
273 271 271 270 271 272 271 271 271 271 270 270 270 270 272 272 274 275 276 277 277 274 274 275 275 278 279 280 279 280 281 281 280 280 281 281 283 284 285 286 286 287 287
270 269 269 270 270 270 270 270 270 270 270 269 269 269 269 272 272 274 275 275 276 274 275 276 277 278 278 277 277 278 277 278 279 279 279 283 285 286 282 279 278 278 278
269 269 269 269 270 270 270 270 270 269 268 268 267 267 268 269 270 271 272 273 274 274 274 275 275 275 275 274 272 274 274 275 276 276 277 284 284 280 279 278 277 278 276
269 268 269 270 269 268 269 269 268 269 269 268 268 268 267 267 269 273 273 272 272 274 274 271 269 268 268 268 269 269 270 272 272 274 274 280 282 280 279 280 278 278 277
268 269 269 267 267 267 267 267 270 270 271 271 271 270 269 271 271 273 273 274 275 274 269 266 265 265 265 265 265 266 267 268 270 271 272 277 279 278 277 278 278 277 277
265 266 266 265 266 265 265 264 263 266 268 269 269 269 269 269 270 271 272 273 273 270 264 263 263 264 264 264 264 264 264 266 268 269 271 275 280 278 277 276 276 277 276
261 261 262 264 264 263 263 263 262 261 260 261 265 266 267 268 268 270 271 270 262 263 262 262 262 262 263 263 263 263 264 264 266 268 269 271 279 277 276 275 276 275 274
262 263 263 262 262 261 260 261 261 261 260 260 261 263 263 265 267 269 268 262 261 260 261 261 262 262 262 262 262 262 263 263 265 266 269 270 279 277 276 276 276 275 273
261 259 259 260 260 260 260 260 260 259 259 258 258 258 259 260 261 260 261 261 260 260 261 261 261 261 261 261 262 262 262 263 265 266 268 269 276 277 276 276 275 273 273
261 261 259 258 259 259 259 258 258 257 257 257 257 258 264 262 258 259 259 260 260 260 260 261 261 261 262 262 262 262 262 263 265 266 267 269 272 277 277 276 274 274 272
260 259 259 258 258 257 257 256 256 256 256 256 256 257 262 258 258 258 259 259 260 260 261 261 261 262 262 263 263 263 263 264 265 266 267 269 269 276 277 276 274 272 270
259 258 258 258 257 256 256 256 256 256 256 255 255 256 256 256 257 257 258 259 260 260 261 261 261 262 263 264 265 265 264 265 267 268 268 268 269 270 277 275 273 271 270
258 257 257 256 256 255 255 255 255 254 255 255 255 255 256 256 256 257 258 259 259 260 261 261 262 262 262 264 266 267 268 270 271 271 271 270 269 269 277 276 273 272 270
257 256 255 255 255 254 254 255 255 255 255 255 255 255 255 255 256 256 257 258 259 259 260 261 261 263 263 264 265 268 271 272 273 274 275 272 270 269 277 276 274 272 271
256 255 255 255 255 255 255 254 255 255 255 255 255 255 255 255 255 256 257 257 258 259 258 261 262 263 264 267 270 271 272 274 275 277 278 274 272 276 277 275 273 272 271
Wind_Speed
9 9 9 8 9 9 8 9 10 11 12 12 13 12 13 13 13 13 14 14 14 14 14 14 15 15 11 10 10 9 12 12 14 13 13 15 18 19 17 15 11 12 10
9 8 9 9 9 9 9 10 10 11 11 12 12 12 13 13 13 14 15 14 16 16 15 15 15 11 15 13 11 14 12 14 13 20 14 14 16 15 17 20 15 10 11
9 8 9 9 9 9 9 9 9 10 11 11 11 12 12 13 14 14 15 15 16 16 16 16 16 15 15 13 13 13 12 12 12 13 16 12 13 13 14 14 16 15 10
8 8 9 8 8 8 8 9 9 10 11 11 11 12 12 13 13 14 14 15 16 15 16 16 18 18 17 16 15 16 14 13 12 13 14 14 12 14 12 12 13 10 11
9 8 9 8 7 8 8 8 9 10 10 11 12 12 13 12 10 13 15 16 17 18 17 17 16 17 24 22 13 14 14 12 11 13 15 14 14 12 12 9 12 12 13
8 9 8 7 7 8 8 9 10 10 11 11 12 13 14 10 21 26 21 16 17 17 18 16 16 20 20 25 26 28 24 15 15 12 14 16 19 16 12 12 12 12 14
8 8 8 7 7 8 8 10 10 10 11 11 12 13 15 15 25 27 27 16 16 16 17 17 16 13 18 17 23 27 25 27 27 18 19 20 21 16 13 14 15 13 14
8 8 7 7 7 7 9 9 10 10 10 10 11 12 14 14 26 27 28 17 15 16 17 16 17 17 16 18 17 18 18 18 18 15 19 20 20 19 17 14 16 15 14
5 5 4 4 6 7 7 9 10 10 10 10 11 13 14 16 26 27 24 15 14 15 15 15 16 17 23 26 18 18 19 18 21 30 32 34 34 34 28 16 15 13 15
5 4 2 3 5 6 8 8 8 10 11 10 12 12 15 18 23 25 23 11 13 12 13 14 22 20 27 27 18 18 20 20 18 22 20 23 26 24 30 21 16 17 15
3 3 3 4 5 6 7 7 8 9 10 11 12 11 13 16 16 25 25 13 11 12 12 12 12 27 30 30 30 19 21 24 24 19 18 16 16 16 14 15 16 15 14
3 2 3 4 4 5 6 7 8 9 11 11 11 10 9 13 19 20 25 23 22 14 14 12 14 30 33 34 28 31 33 29 15 15 15 15 14 14 12 13 15 15 15
3 3 4 4 4 5 7 8 8 8 8 9 9 10 10 10 12 23 23 25 26 17 13 21 32 31 33 26 28 30 26 13 13 13 15 14 12 12 7 4 4 4 1
4 4 4 4 4 5 6 7 7 7 8 8 9 10 11 11 11 11 12 13 18 16 20 15 21 26 27 21 17 15 11 12 13 13 15 14 7 5 7 4 3 3 1
3 3 4 4 4 6 7 7 7 8 9 10 10 10 12 11 11 24 22 15 14 17 21 12 11 11 11 11 11 11 11 11 12 12 13 15 8 7 7 4 4 3 3
3 3 3 4 5 6 7 7 11 16 19 20 22 16 9 22 26 28 29 30 29 29 12 11 11 10 11 12 12 13 11 13 12 13 13 14 8 7 6 4 4 4 3
2 4 4 5 5 6 7 8 9 8 18 19 16 18 22 23 24 27 28 28 27 21 8 9 10 10 11 11 12 12 14 13 15 12 13 15 8 6 5 5 5 4 2
1 2 4 5 6 6 7 8 8 9 10 10 14 16 20 20 24 25 25 23 11 9 8 10 11 11 11 12 11 12 13 13 12 12 13 13 9 6 5 5 4 3 3
3 3 4 5 6 6 7 7 7 8 8 9 10 14 9 20 23 21 21 8 10 10 9 10 10 11 11 11 12 12 13 13 13 13 13 13 8 5 6 5 3 4 5
3 4 3 5 6 6 6 7 7 7 8 8 8 9 10 11 10 10 8 9 9 10 10 11 11 11 11 11 12 12 12 12 12 11 12 11 12 5 5 4 3 4 4
3 4 2 5 6 6 6 6 7 7 7 8 9 9 21 12 10 9 10 9 10 10 11 11 12 12 11 11 11 11 12 12 12 12 11 11 14 6 4 3 3 4 5
3 4 5 5 6 6 5 6 7 7 8 8 9 9 20 8 8 10 10 10 10 11 10 11 11 12 12 12 12 12 13 14 13 12 12 11 11 10 4 3 4 4 6
4 5 5 5 5 6 6 5 6 7 8 8 9 9 8 8 9 10 11 11 11 11 11 11 12 12 12 12 12 12 13 14 13 12 12 11 11 11 5 4 5 6 6
4 5 5 5 5 5 6 6 6 7 8 8 8 8 9 9 10 12 11 11 12 12 12 12 12 17 15 15 13 14 14 14 13 13 16 12 11 12 5 4 6 7 7
4 5 5 5 5 5 6 6 6 7 7 8 8 8 8 9 10 11 11 11 12 12 15 15 13 16 20 24 24 24 22 25 22 20 12 12 12 14 6 5 6 6 8
4 4 5 5 5 5 6 6 7 7 7 8 8 8 9 10 10 11 11 12 12 14 17 13 16 23 26 21 22 25 28 27 23 21 13 9 8 8 5 6 10 7 10
Wind_Direction
267 267 268 277 290 297 295 298 308 314 313 313 312 311 311 312 312 310 305 301 296 296 292 289 288 291 287 285 282 276 283 285 287 293 296 299 299 299 302 301 280 265 255
269 269 266 271 278 282 286 296 304 304 304 305 308 307 308 311 310 308 304 302 297 295 293 288 289 291 289 288 288 283 279 282 285 291 296 298 295 297 298 299 294 271 259
264 257 260 262 268 277 282 290 295 297 302 305 304 304 306 306 305 303 299 297 294 292 293 291 292 295 291 289 288 289 288 292 289 287 292 293 295 297 295 293 296 287 263
263 260 259 265 272 275 282 286 292 301 303 303 302 302 301 302 301 298 297 297 295 292 292 288 285 283 284 286 288 290 292 286 285 283 287 292 292 295 290 291 292 283 278
261 263 268 269 273 277 284 292 298 302 299 300 300 298 300 299 299 305 298 295 294 292 288 287 284 283 287 283 283 282 283 282 287 288 284 288 288 295 290 285 285 291 284
266 266 273 270 269 277 287 297 300 300 299 298 297 299 299 297 302 303 302 295 292 291 290 289 288 288 283 285 286 286 283 285 280 283 285 281 285 284 289 287 284 281 287
266 270 273 275 279 285 297 299 299 299 300 296 296 297 297 300 302 303 303 297 293 290 287 287 289 289 292 287 291 289 288 285 281 284 280 275 283 283 287 283 279 270 271
264 274 276 270 278 292 294 297 299 298 298 298 298 297 294 296 303 306 305 298 292 288 285 288 289 289 289 295 291 291 285 281 281 276 276 281 277 282 273 270 273 280 277
237 242 256 271 283 290 291 294 296 298 296 294 294 300 302 299 305 306 307 297 290 291 287 291 292 294 293 296 294 293 290 286 282 281 278 279 278 278 274 278 265 263 265
230 214 219 258 272 279 286 291 293 294 293 296 298 301 298 297 306 306 307 298 294 298 296 296 295 295 300 303 299 295 289 287 291 290 284 280 275 269 266 259 262 257 254
152 189 224 253 264 272 282 291 300 297 297 298 296 300 297 292 300 305 305 305 302 303 302 299 301 305 305 302 299 291 287 294 293 290 282 278 273 267 260 251 243 241 247
175 232 249 251 273 289 295 298 297 295 294 298 300 300 300 298 297 308 309 312 309 304 302 304 300 300 303 306 305 298 297 298 289 282 278 275 274 270 264 254 244 239 237
206 245 262 271 282 284 293 296 297 293 295 300 305 306 304 305 305 311 318 312 311 309 305 300 304 309 308 306 300 301 303 293 290 292 290 282 277 280 280 297 288 305 331
229 248 258 266 292 294 287 291 292 295 300 303 303 301 307 304 309 316 308 308 311 312 304 301 306 307 303 300 304 303 300 297 295 290 289 285 283 272 266 234 251 242 282
238 261 279 283 294 296 283 287 288 287 290 296 298 301 304 307 309 310 315 315 311 305 317 313 308 308 305 305 303 302 303 302 299 299 300 297 283 276 270 250 242 208 224
263 271 303 304 298 297 295 295 290 292 299 302 300 298 302 305 310 315 316 313 314 323 317 312 306 308 307 311 311 311 309 307 305 305 301 290 284 281 274 255 245 231 205
284 305 297 294 296 301 304 304 305 303 304 310 307 306 310 307 316 317 314 318 326 328 308 305 302 307 307 307 307 306 307 307 306 301 299 300 284 279 272 260 242 227 175
293 267 285 298 304 306 305 307 305 305 312 311 314 314 311 319 319 315 323 329 319 317 301 303 304 304 304 304 304 303 302 303 304 303 303 299 284 273 267 254 236 207 164
276 287 316 305 298 307 299 292 296 299 299 302 308 313 318 319 315 324 327 318 310 307 307 303 300 301 300 301 299 298 297 298 301 301 304 306 290 266 265 253 228 183 151
249 236 279 302 304 305 301 299 300 301 303 301 302 304 316 309 325 321 313 308 303 299 303 302 301 299 298 297 297 297 297 299 302 302 304 304 299 258 262 246 187 171 173
314 307 314 291 294 300 301 296 300 299 296 297 295 300 306 321 314 306 308 308 304 301 301 301 299 297 297 296 295 295 295 296 297 299 301 304 310 273 256 224 177 182 130
313 309 308 306 301 297 301 305 294 295 294 295 299 301 312 307 299 302 304 304 304 300 297 296 295 294 295 294 293 291 291 293 294 295 297 305 306 295 248 188 175 136 139
304 308 308 305 299 301 292 292 295 294 297 298 299 302 305 302 300 299 302 305 304 303 302 299 296 295 294 294 291 287 284 283 284 285 286 290 296 300 244 191 154 148 151
302 307 309 305 298 304 291 299 297 289 290 294 298 299 300 300 299 299 300 303 305 303 303 299 297 296 295 294 295 291 285 284 282 280 275 273 280 288 233 180 158 155 144
307 309 308 304 302 299 296 295 297 295 296 296 297 298 298 297 297 300 302 303 305 305 304 305 298 299 300 300 294 292 296 298 294 284 271 253 260 268 211 172 153 145 147
310 303 302 300 293 295 298 298 298 299 297 298 300 298 297 297 298 300 302 304 305 309 305 301 303 302 304 300 304 305 306 303 301 293 281 228 236 244 169 163 151 151 154